CAPE
2822 2751 2843 2841 3110 1986 1334 1842 2104 2525 2559 2431 2352 2429 2028 2093 2622 2230 2419 2221 1980 1708 1909 940 1014 724 531 602 512 907 593 646 501 653 902 1621 3162 2819 3506 3773 3660 3721 3580 3508 3340 3155 2672 2637 2841 3230 3017 2684 2707 2363 1752 1714 1694 1616 1563 1558 1599 1616 1601 1560 1632 1786 1859 1837 1718 1728 1712 1509 1419 1336 1288 1270 1311 1290 1349 1400 1491 1526 1504 1500 1634
3268 3580 2792 3175 3929 3062 1891 2096 2557 2826 2375 2524 2622 2343 2122 1920 2072 1724 1728 1664 1700 1895 2106 988 558 366 525 622 297 176 524 753 481 538 684 628 3163 3347 3180 3732 3927 3496 3556 3462 3366 3443 3084 3292 2964 3078 3165 2997 3296 2985 2960 2176 1591 1683 1642 1602 1567 1565 1672 1628 1590 1548 1693 1841 1851 1798 1798 1842 1744 1528 1392 1394 1416 1411 1317 1457 1615 1589 1578 1646 1716
2870 3444 3315 3107 3264 3205 2770 2678 2503 2326 2775 2363 2401 2433 2581 2584 3075 2684 2153 2045 2067 1732 1798 926 694 555 326 320 282 394 479 728 175 290 336 1238 2472 3316 3228 3238 3740 3961 3748 3691 3329 3433 3427 3400 3135 3141 3040 2998 2821 3253 3054 3038 2610 1856 1708 1761 1582 1688 1846 1864 1743 1572 1651 1730 1821 1758 1750 1724 1802 1874 1712 1537 1527 1524 1503 1495 1531 1593 1669 1654 1766
3766 3430 2663 3320 3345 3072 3003 2564 2109 2544 2982 2483 3074 3189 3016 3100 2698 2759 2856 1757 1810 1582 1126 861 750 276 472 411 204 307 398 440 189 249 306 601 411 2206 3180 2963 3270 3844 3978 3969 3632 3497 3501 3202 3104 3036 3194 3019 2894 3190 3179 3106 3068 3022 2593 1892 1843 1823 2448 2510 2216 1882 1775 1943 2126 1836 1757 1713 1956 1973 1954 1885 1687 1625 1602 1597 1665 1621 1605 1635 1814
3924 3370 2727 3121 3044 3334 2819 2067 2822 2970 2486 2594 2800 3009 3074 2715 2244 2422 2606 2493 1377 1136 761 427 455 632 624 354 518 349 264 409 339 255 189 266 884 773 1494 3286 3220 3312 3896 3929 3987 3808 3570 3478 3570 3168 3265 3235 2988 2925 2681 2696 2949 2993 2994 2871 2637 2522 2392 2503 2331 2208 2162 2339 2160 1900 1899 1879 2006 2217 2375 2353 2166 2002 1914 1814 1813 1820 1799 1822 1863
3723 3188 3162 2914 2445 2563 2479 2026 2885 2698 3077 3432 2996 3200 2637 2631 2512 2484 2388 1660 1224 936 992 810 854 752 498 458 730 295 372 218 192 390 331 251 388 766 687 1704 2890 3081 3060 3852 3856 4038 3947 3600 3617 3442 3118 3127 3109 2994 3038 2841 2794 3110 2995 2959 2853 2727 2734 2702 2634 2552 2476 2454 2304 2340 2160 2220 2383 2535 2645 2707 2677 2509 2433 2253 2122 2082 2251 2246 1907
3806 3902 3276 3421 2207 1910 1955 1831 2460 2911 2756 3430 2792 2455 2351 1808 1997 1795 1332 1448 1162 957 895 1168 429 882 762 492 616 345 197 228 113 449 582 614 1227 697 1149 1526 1503 2759 3077 2814 3651 3718 3930 3678 3589 3626 3372 3046 3224 3123 3067 2876 2861 2905 3055 2946 2984 2811 2772 2705 2791 2770 2555 2496 2637 2541 2368 2545 2757 2759 2678 2678 2786 2749 2719 2604 2479 2415 2360 2349 2244
3801 3581 3233 3190 2310 1606 1972 3450 2755 3133 3341 3157 2668 2493 2334 1873 1630 1400 1754 1182 1331 1074 1073 1084 471 421 579 668 1710 486 564 31 269 291 277 662 685 920 1502 2142 2147 2084 1280 2446 2758 3295 3675 3534 3460 3522 3370 2945 2885 2888 2795 2826 2984 2860 2946 2892 2921 2846 2783 2719 2579 2630 2787 2876 2722 2577 2781 2777 2788 2876 2896 2954 2928 2865 2890 2838 2738 2590 2507 2456 2435
3746 3251 3171 3165 2359 1850 1347 1402 3123 3384 3287 3276 3228 2683 1868 1560 2305 2107 1434 1357 1052 588 365 501 166 133 155 240 322 337 736 1053 398 282 697 525 627 629 883 1656 2073 2079 1864 1938 2421 3778 3154 3006 3002 3147 2898 2878 2738 2643 2476 2405 2309 2544 2726 2618 2920 2846 2778 2677 2447 2451 2424 2571 2756 2537 2593 2859 3060 2981 3083 3170 3058 2951 2930 2937 2894 2797 2681 2613 2547
3402 3284 3546 3059 2016 1625 1456 2860 3001 3436 3060 2866 2801 2147 1703 1315 1718 2336 1354 1144 1212 320 87 23 70 0 12 0 1079 656 644 853 670 681 928 566 709 612 642 904 1018 1614 1767 1454 1293 2464 2775 2858 2823 2868 2816 2711 2555 2530 2428 2050 1988 2252 2171 2359 2348 2380 2503 2466 2633 2595 2460 2436 2680 2572 2597 2718 3054 2998 2924 2958 3080 3068 3044 2998 2911 2846 2790 2728 2669
3166 3245 3385 3198 2600 2210 2144 2452 2690 2464 2477 2772 2401 2150 1755 1623 1333 922 636 352 372 320 288 152 0 173 150 316 1119 634 1038 667 936 975 856 286 181 423 303 588 622 917 971 1498 1712 2036 2348 2688 3013 2934 2819 2734 2638 2489 2283 2141 2093 1922 2038 2201 2162 1901 2017 2223 2325 2537 2644 2577 2558 2588 2613 2714 2749 2859 2788 2824 2698 2862 2921 3070 3080 3028 2947 2820 2709
3291 3217 3450 3588 3348 2811 3019 2906 2860 2434 2153 2011 1810 1642 1629 834 616 333 459 422 448 701 393 530 770 642 616 388 336 919 469 673 612 460 632 589 50 242 18 234 466 507 314 578 1223 1969 1993 2374 2687 2366 2526 2349 2389 2424 2361 2202 2092 2002 2077 2164 2227 2141 2354 2360 2404 2361 2433 2602 2630 2735 2787 2769 2751 2708 2713 2447 2282 2352 2472 2580 2636 2905 3020 2978 2838
3394 3153 3217 3717 3795 4061 2683 2346 2179 2206 2506 2182 1846 884 945 914 1692 1674 377 339 472 513 366 0 989 424 991 642 1153 705 1016 285 473 156 303 328 473 177 0 0 0 125 602 451 634 1067 2248 2124 2040 2344 2390 2260 2115 2178 2066 1928 1895 1860 2099 2236 2373 2466 2594 2526 2442 2435 2299 2270 2440 2518 2629 2598 2605 2640 2568 2153 2104 1954 2028 2327 2350 2392 2644 2372 2763
3504 3450 3462 3486 4260 3820 2450 2458 2258 2130 2112 2077 1227 882 1205 755 562 595 618 696 192 153 288 211 546 411 826 960 412 711 983 800 264 207 31 64 31 4 0 0 0 0 0 971 705 832 988 1386 1595 1851 2049 2196 2368 2254 1904 2023 1861 1973 1869 2139 2302 2279 2326 2300 2401 2378 2384 2385 2410 2386 2299 2441 2439 2449 2392 2154 1996 1993 2173 2307 2302 2224 2229 2309 2352
3467 3553 3460 3354 3411 3319 2639 2851 2443 2335 2681 2042 1633 1526 2094 512 316 501 494 548 657 512 725 173 321 574 244 47 602 600 1315 1440 736 84 42 5 0 2 23 0 0 0 0 2 328 383 425 474 491 1044 1389 1762 1839 2202 2048 1974 1610 1334 1328 1376 1516 1848 1978 2035 1974 2030 2118 2032 1988 1962 1933 2097 2284 2320 2198 2141 2132 2054 2120 2205 2168 2163 2112 2072 2172
3123 3285 3369 3232 3610 3598 3148 2734 2729 2719 2482 2004 1910 1879 1123 913 481 1146 1083 397 209 771 429 873 499 716 656 550 706 220 995 939 802 677 34 9 4 0 0 0 0 24 0 0 15 125 109 249 322 257 402 656 1767 1684 2049 1704 1400 1094 951 687 552 758 1137 1334 1345 1370 1426 1790 1811 1898 2013 2097 2144 2140 2055 2064 2051 1974 2052 2104 2157 2188 2259 2301 2293
2996 2919 3171 3313 3496 3512 2852 2592 2443 2386 2156 1738 1364 1260 511 322 1265 857 724 808 660 455 790 587 276 538 625 335 456 700 512 433 186 545 141 20 19 0 335 0 0 94 74 0 0 0 5 62 88 48 141 315 140 898 1530 1369 1275 1158 564 216 110 184 247 501 794 849 1012 1134 1147 1123 1206 1488 1730 1781 1853 1914 1852 1843 1886 1744 1948 2042 2196 2285 2328
3081 2956 3129 3251 3354 3141 2730 2114 1993 1843 2448 2356 1478 822 125 501 927 965 1095 912 958 541 486 442 792 409 225 20 598 482 622 701 292 548 894 49 122 21 46 5 4 150 166 1 26 0 0 0 211 15 0 0 0 72 88 691 624 556 512 112 1 0 17 130 215 216 205 263 562 676 732 794 863 894 1124 1267 1366 1767 1912 1938 1733 1810 2008 2142 2255
2794 2974 2990 3044 2878 2721 2397 2111 2233 2046 2005 1282 790 585 697 280 582 902 1047 1048 641 1113 573 178 566 562 558 183 358 317 453 481 647 783 576 846 1168 2 2 11 5 0 6 3 0 0 0 0 0 0 53 0 0 38 297 17 0 3 6 0 0 0 0 0 79 26 15 44 56 59 110 148 238 397 690 840 880 918 997 1239 1515 1606 1730 1893 2180
3172 3216 2908 2494 2606 2459 2340 2042 2056 1675 1486 1127 2150 678 958 1224 1010 345 1220 1196 1456 604 817 575 920 1090 714 458 265 391 132 154 51 126 312 202 676 227 5 11 53 3 4 3 2 0 458 0 0 0 11 206 0 1 0 261 1 46 6 0 0 0 0 0 0 0 1 0 9 7 12 10 36 46 54 89 142 229 460 660 799 962 1032 1061 1444
3081 3059 2743 2330 2588 2550 2168 1948 1436 1077 1168 1192 754 1105 976 1180 1081 1858 941 1128 430 1382 575 928 641 722 1230 792 876 725 426 384 98 270 166 413 636 232 470 87 16 31 27 1 1 87 240 16 8 0 0 20 0 0 0 176 231 37 33 20 0 0 0 0 0 0 0 0 0 0 0 0 0 0 1 10 27 52 64 79 114 165 301 525 892
2912 2860 2752 2516 2352 2186 1925 1692 816 814 1208 1075 598 195 660 392 543 973 1258 993 812 715 597 1290 982 482 1245 1403 982 859 530 50 162 240 521 278 136 29 42 140 379 178 65 10 233 5 8 81 85 53 0 175 22 28 0 0 214 17 6 3 0 0 0 0 0 0 0 0 0 0 0 0 0 0 0 0 0 0 0 0 0 0 2 52 147
2315 2941 2712 2054 2187 1795 1394 1554 746 1120 1076 662 1401 584 144 238 143 257 48 56 779 352 446 128 801 648 596 904 874 700 978 631 489 332 212 296 459 105 75 19 19 65 326 125 131 152 294 541 132 16 217 0 0 2 45 136 1 25 1 15 0 0 0 0 0 0 0 0 0 0 0 0 0 0 0 0 0 0 0 0 0 0 0 0 0
2624 2559 1977 1300 1892 1733 1224 890 1084 1267 777 480 625 758 35 195 809 265 562 386 645 808 427 1277 185 954 295 291 407 79 574 324 458 1033 245 385 258 243 229 284 388 296 96 343 386 108 15 41 34 4 12 56 69 260 261 3 0 306 45 198 31 0 0 0 0 0 0 0 0 0 0 0 0 0 0 0 0 0 0 0 0 0 0 0 0
2594 2246 2170 1850 1974 2715 1497 1683 1622 800 1147 1630 860 290 737 911 691 401 760 267 216 322 160 120 15 461 307 118 161 57 491 228 193 233 510 605 450 348 177 44 90 109 349 22 166 169 124 101 123 250 268 372 55 38 244 118 35 480 298 335 0 0 4 1 0 0 0 0 0 0 0 0 0 0 0 0 0 0 0 0 0 0 0 0 0
2077 2326 1720 1675 1567 1447 1134 1054 1196 854 643 414 643 492 317 1219 766 220 454 409 501 447 330 300 469 66 48 67 38 83 176 170 362 130 63 233 345 182 486 358 62 36 169 370 675 97 280 133 120 275 99 95 240 454 3 0 0 128 861 54 67 28 33 32 18 0 0 0 0 0 0 0 0 0 0 0 0 0 0 0 0 0 0 0 0
2359 2277 2170 1816 1488 1116 975 964 919 1184 760 1025 716 762 672 417 649 230 772 679 251 559 272 173 45 30 56 534 239 134 166 365 26 170 196 188 410 183 136 200 132 121 117 168 804 336 67 368 54 75 368 436 241 197 531 323 130 1316 970 230 132 105 65 38 8 2 0 0 0 0 0 0 0 0 0 0 0 0 0 0 0 0 0 0 0
2583 2007 1786 1553 1229 1306 1202 976 1145 926 1199 926 688 529 637 603 532 625 388 116 642 603 280 458 155 454 173 477 517 174 200 271 317 481 500 129 337 236 349 279 221 180 221 193 72 101 37 166 212 277 205 607 177 339 167 99 59 860 743 217 204 130 39 38 48 22 2 0 0 0 0 0 1 0 0 0 0 0 0 0 0 0 0 0 0
2218 1825 1582 1423 1262 1060 924 760 1164 992 1024 882 710 763 706 530 751 493 469 162 914 550 926 561 704 228 478 336 763 525 630 513 682 357 564 452 438 444 549 429 567 194 185 163 203 115 109 25 19 1921 272 309 718 76 312 186 125 194 640 381 155 168 122 52 51 59 32 0 0 0 0 0 0 0 0 0 0 0 0 0 0 0 0 0 0
1689 1322 1474 1168 1400 1498 1089 1080 894 876 785 594 646 604 899 807 573 632 577 499 323 916 1118 687 623 641 463 398 434 1154 1097 571 484 446 433 930 664 785 688 786 818 590 425 182 216 196 153 128 30 578 956 806 474 545 378 384 174 227 96 57 53 73 106 68 72 91 58 11 0 0 0 0 0 0 0 1 10 0 0 18 22 0 2 2 1
1772 1677 1600 1077 1313 1240 1391 1089 908 799 830 629 700 582 744 1002 676 790 710 848 872 723 1066 933 703 637 602 503 740 690 802 682 568 504 568 424 869 839 818 712 756 698 591 490 286 338 145 84 129 87 541 1192 276 502 433 293 250 221 100 110 120 94 109 107 69 50 43 26 7 0 0 0 0 0 0 0 0 0 10 0 0 0 0 1 6
1828 1754 1327 1396 1176 1213 1130 634 742 673 625 525 643 734 619 643 583 422 404 583 557 438 433 534 429 775 651 480 564 701 867 948 851 695 779 368 475 1041 753 935 1236 934 689 497 350 365 558 258 181 245 96 46 765 1138 926 375 409 467 375 318 214 231 223 193 173 74 25 18 11 7 1 0 0 0 0 0 0 0 0 0 0 4 19 0 0
1788 1627 1450 1519 1381 1245 786 748 632 560 572 484 578 758 703 737 750 606 606 860 538 639 631 437 294 350 812 1034 999 963 922 887 897 718 435 650 742 978 1059 1005 836 818 662 614 398 514 523 490 511 304 176 143 58 73 52 216 419 363 318 262 193 92 80 152 177 177 122 83 15 0 0 0 0 0 0 0 0 0 0 0 0 0 0 0 0
1818 1687 1718 1520 1450 1247 849 916 878 748 753 822 529 763 862 828 586 554 644 832 913 927 941 935 929 678 667 667 764 879 873 740 632 587 571 549 807 673 707 608 625 834 918 621 769 516 403 417 533 859 516 269 96 93 280 521 218 456 1015 425 189 186 233 80 27 24 14 28 10 0 0 0 0 0 0 0 0 0 0 0 0 0 0 0 0
1919 1884 1877 1429 1415 1283 1010 991 1038 971 1078 948 540 529 740 848 696 408 382 588 658 513 446 614 689 784 730 691 707 710 735 586 620 535 322 755 796 615 729 853 689 624 762 651 468 399 346 280 288 232 179 295 231 156 120 112 249 426 282 233 162 166 172 112 41 8 3 1 0 0 0 0 0 0 0 0 0 0 0 0 0 0 0 0 0
2151 2330 2332 1421 1446 1365 1200 1275 1166 1004 1206 1046 765 730 769 816 729 713 627 678 677 664 595 579 573 624 697 791 632 566 752 692 712 742 674 789 849 872 602 919 1128 1044 1035 1511 876 543 600 308 256 367 461 402 438 487 437 417 329 279 248 170 123 63 73 221 175 89 19 0 0 0 0 0 0 0 0 0 0 0 0 0 0 0 0 0 0
2667 2872 2618 1606 1552 1451 1321 1556 1364 1204 1271 1148 1040 746 755 684 715 612 583 690 752 816 810 832 861 876 892 680 659 715 772 706 786 605 917 734 787 739 803 1162 1053 888 1236 995 954 596 339 214 266 316 319 352 412 569 589 397 522 592 464 295 212 144 144 97 40 23 0 0 0 0 0 0 0 0 0 0 0 0 0 0 0 0 0 0 0
2911 3002 2488 1764 1787 1598 1331 1339 1239 1227 1249 1214 1040 724 498 392 351 292 432 605 670 748 705 704 842 861 764 878 928 964 1030 985 959 486 601 750 409 341 497 1700 1116 1425 1018 1066 1123 963 671 427 283 282 467 720 800 634 551 670 576 353 242 236 189 115 79 135 119 62 33 8 1 35 48 8 0 0 0 0 0 0 0 0 0 0 0 0 0
2577 3134 2460 2062 1766 1405 1239 1068 1012 1098 1268 1191 1094 909 542 287 244 254 262 476 623 778 684 626 622 724 743 733 1042 1054 754 744 281 227 340 472 302 282 358 928 1552 1615 1472 1114 1106 978 800 659 577 555 521 778 800 512 666 741 645 469 229 141 84 81 310 582 577 453 92 2 2 0 0 1 3 0 0 0 0 0 0 0 0 0 0 0 0
2517 2880 2599 2159 1829 1563 1304 1249 1082 1212 1443 1250 1219 986 486 249 293 351 416 482 552 669 658 698 601 297 472 698 550 668 604 691 397 424 490 437 1400 1364 1270 1118 1136 917 783 528 444 619 698 490 353 199 155 113 250 466 449 466 500 652 563 271 125 72 71 89 51 37 92 63 24 12 4 1 0 6 1 0 0 0 0 0 0 0 0 0 0
2664 2602 2458 2361 2029 1773 1736 1680 1547 1571 1310 991 980 738 385 256 280 345 552 663 715 690 632 513 644 793 998 746 650 495 400 1137 614 351 673 653 977 1300 1089 1017 936 674 545 450 344 273 274 300 219 175 188 220 228 291 277 254 261 192 262 192 54 97 163 82 109 340 298 53 8 5 14 27 19 10 3 0 29 66 80 4 0 0 0 0 0
2375 2300 2079 1886 1765 1660 1919 1792 1555 1541 1256 994 717 360 164 222 283 349 519 681 721 664 686 720 762 1099 994 758 599 702 871 1334 1055 850 401 202 348 777 1294 1330 1244 1107 990 917 846 662 435 265 192 155 122 71 3 105 116 95 84 103 58 112 99 108 128 84 116 164 344 341 80 12 31 195 156 29 26 12 54 224 166 137 109 78 44 0 0
2470 2034 1674 1510 942 998 1530 1183 1127 997 994 547 18 0 0 52 240 395 543 767 828 951 880 861 914 892 804 651 600 733 1536 1269 1051 1033 824 536 251 176 244 353 420 401 415 468 436 565 675 588 458 293 186 5 41 117 111 81 43 37 124 170 216 246 179 65 5 44 392 290 385 226 76 226 279 171 101 57 62 125 145 126 101 105 59 9 5
2559 1931 1539 1090 719 744 1019 711 833 886 739 421 211 0 0 0 152 505 678 821 886 930 831 830 1065 1025 909 718 734 1082 1479 1262 1152 1096 925 657 365 228 301 268 264 264 320 548 635 603 612 556 502 450 329 227 224 154 71 49 362 581 511 464 358 250 159 82 47 20 205 141 35 53 32 98 113 16 16 80 159 192 184 139 103 31 0 0 1
2356 1914 1195 1223 1321 1472 1549 1376 1101 983 900 504 220 0 0 0 8 404 708 934 966 842 849 893 991 1029 1111 1059 1093 1265 1144 891 677 426 874 1267 1277 1013 1046 1124 841 474 321 277 223 307 179 96 115 138 180 141 117 222 356 694 446 376 443 343 310 233 143 68 27 1 6 95 9 0 0 22 132 97 74 107 154 157 132 84 42 22 14 5 0
2573 2178 1540 1550 1686 1867 1901 1621 1402 1305 998 591 252 0 0 0 0 121 786 948 929 923 961 1014 947 774 867 791 1115 1359 1031 721 470 458 1167 1379 1545 1498 1148 933 679 649 601 379 217 130 118 151 139 118 101 169 312 544 614 414 412 298 100 36 34 7 0 0 0 0 0 57 58 20 6 42 110 76 61 55 77 93 83 76 56 49 1 0 0
2499 2432 2152 2154 2022 2114 2021 1902 1682 1376 874 480 90 0 0 0 0 21 828 838 990 1143 1229 802 619 610 640 699 904 1285 913 564 414 316 778 1359 1397 1462 1304 961 682 438 408 420 411 320 418 424 328 400 465 476 539 726 553 497 88 23 5 0 0 0 0 0 0 1 12 82 153 174 89 64 53 16 24 14 1 0 0 0 0 0 0 0 0
2481 2462 2466 2375 2328 2241 2125 1931 1653 1228 760 404 93 0 0 0 0 166 908 1151 1218 1242 1091 856 1112 1394 1291 1306 1475 962 725 661 447 388 504 1043 1186 977 746 620 586 618 576 554 578 515 574 488 648 725 680 517 329 177 11 0 6 4 2 0 1 2 9 0 0 0 2 20 112 131 35 4 11 0 0 0 0 0 0 0 0 0 0 0 0
2689 2622 2532 2443 2370 2283 2186 1866 1482 1082 793 539 174 0 0 0 0 512 1024 1057 1063 1009 842 998 1379 1327 1212 1332 1556 1322 1033 886 610 344 367 611 726 595 416 377 402 386 437 499 485 494 496 447 292 129 0 0 0 11 0 0 0 0 0 0 0 2 10 16 13 7 6 5 21 64 0 0 0 1 7 3 0 0 0 0 0 0 0 0 0
2781 2619 2468 2420 2282 2111 1910 1698 1407 1138 900 626 395 202 0 0 88 655 741 881 929 968 1172 1246 926 1028 1174 1698 1731 1456 1202 970 798 459 477 584 321 234 223 254 313 344 369 400 107 226 2 0 0 0 75 47 0 0 0 0 0 0 0 0 5 10 2 8 21 16 7 16 16 0 0 1 5 9 2 0 0 0 0 0 0 0 3 9 2
2753 2582 2416 2260 2019 1857 1614 1471 1250 1151 925 669 489 351 14 0 25 653 906 859 1087 1112 1030 941 664 690 1052 1684 1276 954 980 1022 925 691 577 331 197 254 358 328 350 394 197 45 67 30 18 0 27 319 519 327 469 482 489 49 0 0 0 2 22 43 71 89 62 80 41 24 0 7 0 0 0 0 0 0 0 0 0 0 3 40 68 87 64
Wind_Speed
8 8 9 8 8 8 10 18 14 13 15 15 12 10 11 7 6 7 5 5 6 5 6 7 9 9 8 9 9 9 7 8 10 13 14 13 15 17 21 23 22 21 21 18 17 15 14 11 10 8 10 10 9 9 9 11 11 11 11 10 10 10 10 9 8 7 7 8 8 8 8 8 8 8 8 8 7 7 7 8 9 9 9 8 8
8 8 8 8 8 10 13 18 12 11 12 9 9 7 6 4 4 9 5 4 4 4 6 7 8 8 12 12 10 8 10 10 9 13 14 13 16 15 20 20 20 20 19 19 18 18 16 15 13 12 11 9 9 8 7 8 9 10 10 10 10 10 9 9 10 8 7 6 6 6 6 6 6 5 6 7 7 7 7 7 8 8 8 8 9
5 5 6 8 7 9 10 9 11 9 8 8 6 6 6 5 6 7 3 3 5 6 9 9 8 11 10 12 11 11 11 12 10 8 8 11 14 15 16 20 20 19 19 19 19 18 18 15 15 14 14 12 11 11 10 9 8 7 9 9 9 8 7 9 9 9 8 7 5 5 5 4 5 4 3 4 6 6 6 7 7 8 8 8 8
4 3 6 6 7 8 9 8 7 7 7 7 7 8 7 7 7 6 6 7 8 10 10 11 12 10 9 13 12 13 12 13 10 10 11 13 13 15 14 15 19 20 19 19 19 19 19 17 15 14 14 15 14 11 12 11 10 8 7 8 9 8 8 9 9 9 9 8 7 5 5 4 4 4 3 2 3 4 5 6 6 7 8 8 7
3 4 5 4 6 7 4 7 7 6 7 2 4 5 6 7 9 9 10 11 11 11 10 10 9 9 8 11 11 12 12 14 14 12 10 8 13 11 14 16 15 18 19 18 17 18 18 18 16 14 15 16 16 14 13 12 12 12 11 11 10 8 7 8 9 9 8 9 9 7 6 5 5 5 4 2 1 2 3 4 5 6 6 7 7
5 4 3 3 4 6 7 8 5 5 5 7 6 8 9 8 9 11 12 11 11 11 12 12 11 10 10 11 12 15 13 13 14 14 13 11 8 8 6 9 11 10 11 14 14 15 17 17 17 17 17 18 19 19 18 17 16 16 15 13 13 10 8 8 8 8 8 8 7 8 7 6 5 5 5 4 2 2 1 2 3 4 4 6 7
4 3 3 3 4 6 7 8 8 9 7 8 8 8 9 7 8 10 11 12 10 9 10 13 14 13 13 12 11 13 11 13 15 14 15 12 9 10 8 6 8 11 10 9 10 13 16 17 18 19 19 19 20 21 22 22 21 20 19 16 14 13 11 10 9 9 7 7 7 8 8 8 7 6 5 5 4 2 1 1 2 3 3 4 5
4 5 4 4 5 5 4 6 9 9 9 9 9 10 11 11 9 10 13 12 12 11 11 12 14 14 15 15 14 14 11 nan 12 11 16 13 11 13 11 8 5 8 8 11 10 10 13 15 16 17 18 19 19 19 21 23 23 22 20 19 16 13 13 11 10 8 8 8 9 9 9 9 8 7 6 6 5 4 2 1 1 2 2 3 4
4 4 4 5 6 6 7 8 11 11 11 12 12 11 12 13 15 14 13 14 13 12 11 10 11 14 14 12 16 13 10 13 14 12 12 14 13 16 12 16 10 9 5 10 11 11 12 10 10 11 13 14 15 16 17 19 20 20 19 19 17 15 14 13 11 8 6 5 7 9 10 9 8 8 8 7 6 5 4 3 2 1 1 2 3
6 6 6 6 5 5 5 13 13 14 13 13 14 13 11 12 13 16 15 15 14 12 nan nan nan nan nan nan 17 13 11 14 13 14 11 12 16 16 13 14 13 12 11 9 9 9 10 14 14 13 13 13 12 12 14 14 14 14 15 15 15 14 12 10 10 9 6 5 5 6 8 10 11 10 9 9 8 6 5 3 3 2 1 0 1
7 7 8 8 7 8 9 12 16 14 13 13 15 15 14 17 16 15 15 15 14 14 14 12 nan 12 14 13 17 15 13 13 14 15 12 11 12 14 18 14 15 15 14 16 11 10 10 10 11 12 13 16 14 14 15 19 19 15 16 17 16 16 14 11 9 7 7 5 5 5 5 8 11 14 13 11 10 9 7 5 4 3 3 2 1
7 8 9 10 9 9 12 16 17 17 16 16 17 19 19 17 17 16 16 16 15 15 15 13 11 13 13 15 13 17 12 13 14 15 15 13 nan 11 nan 15 14 16 16 15 16 16 13 12 11 12 14 15 16 15 15 15 15 15 15 16 17 16 15 15 13 11 9 7 5 5 5 5 6 11 14 14 14 13 11 8 7 5 4 4 3
9 9 11 13 14 15 19 17 19 18 19 20 20 21 21 20 19 20 18 17 16 18 17 nan 14 12 14 13 13 17 17 13 13 13 13 14 16 17 nan nan nan 14 17 17 15 15 15 14 15 13 13 13 14 18 18 16 14 14 15 16 17 16 14 14 14 13 12 11 8 6 6 6 5 7 13 13 13 12 11 10 9 8 6 4 5
11 12 14 17 19 20 23 22 24 22 22 21 22 21 20 20 21 19 21 19 17 15 18 17 17 15 15 15 16 18 18 16 13 12 nan nan nan nan nan nan nan nan nan 17 19 15 14 14 14 14 14 13 12 13 15 15 16 17 17 17 18 18 17 16 14 12 10 10 8 7 7 8 6 6 9 13 12 11 12 13 12 10 7 6 6
15 17 17 19 21 23 26 25 25 24 23 22 23 21 21 22 21 22 19 18 18 16 18 18 15 13 17 nan 16 20 15 13 13 nan nan nan nan nan nan nan nan nan nan nan 18 17 15 15 13 13 12 14 13 13 13 16 16 18 17 17 16 17 17 18 16 15 13 11 9 9 9 10 10 9 10 11 13 14 14 13 12 11 9 8 8
19 22 20 20 24 26 27 27 26 25 24 22 22 22 23 24 21 23 23 19 19 19 17 19 18 16 17 17 17 16 20 15 14 14 nan nan nan nan nan nan nan nan nan nan nan 19 17 16 16 13 14 12 15 14 15 15 19 19 19 18 17 16 16 17 17 17 17 15 13 12 11 11 11 12 11 10 10 12 14 14 13 12 12 12 11
21 25 24 23 25 25 26 27 27 26 25 24 22 21 23 23 25 23 22 21 20 20 17 19 20 19 18 18 18 21 19 18 18 14 14 nan nan nan 22 nan nan nan nan nan nan nan nan nan nan nan 14 15 13 15 16 17 17 18 18 18 17 16 16 16 17 17 18 19 19 19 18 16 14 12 11 10 9 10 12 14 15 15 15 14 13
23 27 26 24 24 25 25 26 28 27 25 24 24 24 24 23 29 26 25 26 22 19 20 19 22 21 21 nan 21 23 22 17 18 17 15 nan 16 nan nan nan nan 26 23 nan nan nan nan nan 18 nan nan nan nan nan nan 16 18 19 19 17 nan nan nan 16 16 17 18 18 18 19 19 20 19 18 18 17 16 15 13 13 13 15 16 16 15
25 25 25 25 24 25 24 25 28 28 27 28 26 25 29 25 24 27 29 27 23 21 20 20 22 18 19 21 24 20 23 23 21 22 20 17 17 nan nan nan nan nan nan nan nan nan nan nan nan nan nan nan nan nan 15 nan nan nan nan nan nan nan nan nan nan nan nan nan nan nan 18 19 19 18 17 16 15 16 19 20 21 20 19 19 19
26 25 26 25 26 25 25 26 26 27 27 26 26 28 28 26 28 29 27 27 24 25 23 23 20 22 22 21 22 21 21 22 nan 23 22 22 19 18 nan nan nan nan nan nan nan nan 27 nan nan nan nan 23 nan nan nan 20 nan nan nan nan nan nan nan nan nan nan nan nan nan nan nan nan nan nan nan nan 16 16 17 18 19 21 24 26 27
24 27 27 26 27 27 26 25 27 27 23 26 26 29 30 30 28 27 28 27 27 27 26 24 22 27 23 22 21 20 23 22 nan 25 25 24 23 23 23 nan nan nan nan nan nan nan 28 nan nan nan nan nan nan nan nan 18 24 nan nan nan nan nan nan nan nan nan nan nan nan nan nan nan nan nan nan nan nan nan nan nan 19 20 22 23 24
27 27 26 27 28 28 28 28 27 29 26 24 29 30 30 30 28 28 26 27 27 26 25 26 26 27 28 24 23 21 24 nan 25 25 28 26 26 nan nan 24 26 25 nan nan 23 nan nan nan nan nan nan 25 nan nan nan nan 23 nan nan nan nan nan nan nan nan nan nan nan nan nan nan nan nan nan nan nan nan nan nan nan nan nan nan nan 23
27 27 27 28 29 29 29 30 30 32 29 29 27 27 32 30 30 29 nan nan 26 26 24 26 27 28 28 27 24 24 25 27 28 27 28 26 26 25 nan nan nan nan 25 25 27 26 26 23 22 nan 21 nan nan nan nan 23 nan nan nan nan nan nan nan nan nan nan nan nan nan nan nan nan nan nan nan nan nan nan nan nan nan nan nan nan nan
28 28 28 32 29 29 28 29 30 32 32 28 29 28 nan 31 30 32 29 27 25 24 23 24 26 28 26 29 27 nan 31 30 31 30 30 31 31 29 27 27 27 29 nan 27 31 30 nan nan nan nan nan nan nan 28 29 nan nan 29 nan 28 nan nan nan nan nan nan nan nan nan nan nan nan nan nan nan nan nan nan nan nan nan nan nan nan nan
26 29 28 32 31 29 30 29 30 29 28 29 30 30 29 29 33 33 31 30 27 26 26 23 nan 24 26 26 30 nan 33 34 33 33 35 35 33 31 29 nan nan 29 30 nan 31 32 29 26 27 26 25 25 nan nan 28 26 nan 23 27 27 nan nan nan nan nan nan nan nan nan nan nan nan nan nan nan nan nan nan nan nan nan nan nan nan nan
25 27 27 28 27 28 31 33 32 32 30 27 29 30 29 29 32 32 31 32 28 27 25 22 22 nan nan nan nan nan 30 32 35 38 nan 36 36 34 32 31 nan nan 31 29 33 nan 30 29 29 28 nan nan 28 29 nan nan nan 22 28 nan nan nan nan nan nan nan nan nan nan nan nan nan nan nan nan nan nan nan nan nan nan nan nan nan nan
25 23 24 30 29 32 37 38 37 36 36 31 30 29 30 30 29 32 28 31 27 28 28 25 nan nan nan 26 26 25 28 29 nan 34 36 36 38 38 37 34 32 32 31 30 31 32 nan 33 nan nan 29 30 30 31 29 25 22 28 29 24 26 30 nan nan nan nan nan nan nan nan nan nan nan nan nan nan nan nan nan nan nan nan nan nan nan
23 23 23 27 29 36 40 40 40 41 38 33 27 26 28 31 33 32 32 28 28 28 26 25 25 25 25 25 27 26 28 31 32 32 35 36 38 38 37 37 34 31 32 31 nan 30 nan 30 31 32 33 31 31 32 29 nan nan 27 27 26 24 25 nan nan nan nan nan nan nan nan nan nan nan nan nan nan nan nan nan nan nan nan nan nan nan
24 25 27 27 31 35 37 37 37 38 37 30 26 26 33 35 38 36 32 28 27 29 30 30 26 23 25 25 28 30 32 33 35 34 34 35 37 38 37 36 36 34 33 32 31 31 31 nan nan 34 35 34 33 nan 31 29 27 25 27 26 24 24 22 nan nan nan nan nan nan nan nan nan nan nan nan nan nan nan nan nan nan nan nan nan nan
25 27 27 31 32 35 34 33 34 33 33 31 28 30 34 38 39 37 32 28 26 29 33 32 30 29 27 27 27 31 35 38 38 36 35 36 38 37 36 36 37 36 35 31 31 33 31 31 nan 34 33 34 34 33 31 30 28 25 nan nan nan nan 23 nan nan nan nan nan nan nan nan nan nan nan nan nan nan nan nan nan nan nan nan nan nan
28 29 27 29 29 31 31 32 32 32 31 32 32 34 35 35 36 35 31 30 29 30 32 34 32 31 30 29 32 33 34 36 38 39 38 40 39 37 35 36 36 35 35 34 32 35 34 nan 32 nan 33 34 33 32 31 30 29 28 26 26 26 nan 23 24 nan nan nan nan nan nan nan nan nan nan nan nan nan nan nan nan nan nan nan nan nan
29 29 26 25 27 29 30 32 32 34 34 33 36 36 36 35 34 33 32 32 31 31 30 31 31 32 30 30 32 35 38 39 38 37 39 41 40 39 37 36 36 36 36 35 34 33 36 33 31 33 nan nan 32 32 32 31 32 32 30 28 27 24 26 28 27 nan nan nan nan nan nan nan nan nan nan nan nan nan nan nan nan nan nan nan nan
26 27 26 25 27 28 30 30 32 32 34 35 34 35 36 37 36 36 34 37 37 35 34 33 32 30 31 31 34 38 42 42 40 37 37 40 40 39 38 38 36 37 37 37 35 34 36 36 34 34 34 33 nan nan nan 30 32 31 30 29 29 nan nan 31 31 29 32 nan nan nan nan nan nan nan nan nan nan nan nan nan nan nan nan nan nan
25 27 26 25 26 28 29 30 30 31 32 34 36 34 37 38 39 38 38 38 37 36 35 34 34 33 32 33 34 37 41 42 41 38 37 38 38 37 37 38 38 37 39 37 38 38 36 38 37 36 36 36 nan nan 31 31 31 31 29 29 29 29 31 nan nan nan nan nan nan nan nan nan nan nan nan nan nan nan nan nan nan nan nan nan nan
24 26 26 25 26 28 29 30 30 30 31 33 35 36 36 38 38 38 39 39 39 39 37 36 36 36 36 35 34 35 37 38 40 40 38 36 36 35 36 40 39 38 38 38 40 40 38 38 40 37 36 36 34 32 32 31 31 31 30 30 31 32 33 35 nan nan nan nan nan nan nan nan nan nan nan nan nan nan nan nan nan nan nan nan nan
24 24 26 27 28 30 30 31 32 32 33 35 37 38 38 38 38 38 37 38 40 41 41 41 40 39 38 38 37 36 35 35 36 38 37 35 35 36 38 40 40 39 39 41 41 41 42 39 38 38 38 36 35 35 37 36 34 34 33 33 34 nan nan 40 44 nan nan nan nan nan nan nan nan nan nan nan nan nan nan nan nan nan nan nan nan
24 25 26 28 29 31 33 34 35 35 35 37 40 41 40 39 39 38 37 37 38 40 42 42 41 40 40 40 40 40 38 35 33 32 33 33 37 39 40 41 40 40 42 41 41 42 41 39 38 39 39 40 39 37 39 39 39 38 39 39 40 40 42 nan nan nan nan nan nan nan nan nan nan nan nan nan nan nan nan nan nan nan nan nan nan
27 27 30 29 29 33 36 38 38 37 37 39 43 44 45 44 44 43 41 40 40 40 41 41 41 40 39 38 40 40 40 37 34 32 31 33 37 38 39 43 43 40 39 39 40 41 41 41 41 39 41 42 43 42 44 45 44 44 45 45 45 47 nan 50 51 nan nan nan nan nan nan nan nan nan nan nan nan nan nan nan nan nan nan nan nan
32 30 33 34 33 36 38 40 42 42 41 43 45 47 47 48 49 48 45 42 42 42 42 42 41 40 40 39 39 40 40 40 37 34 32 32 35 35 39 41 41 40 40 40 40 40 42 43 44 43 43 45 45 43 47 50 50 51 50 50 nan nan 52 52 51 54 nan nan nan nan nan nan nan nan nan nan nan nan nan nan nan nan nan nan nan
34 36 39 40 39 39 40 43 45 45 45 46 48 50 49 49 51 52 49 43 41 42 42 42 41 39 38 39 40 40 41 42 41 38 36 35 37 38 39 40 41 41 39 39 39 40 42 44 44 45 47 46 47 49 51 53 53 54 55 53 50 nan nan nan nan nan nan nan nan nan nan nan nan nan nan nan nan nan nan nan nan nan nan nan nan
35 39 40 42 43 41 41 45 49 49 50 50 51 53 53 52 52 54 52 47 43 42 41 41 41 39 38 39 39 40 42 46 48 44 40 37 36 38 39 40 41 41 40 40 40 39 39 40 40 41 43 44 45 47 48 48 48 47 49 48 nan nan 50 nan 52 54 53 nan nan nan nan nan nan nan nan nan nan nan nan nan nan nan nan nan nan
37 40 43 45 46 44 45 49 51 52 53 52 56 62 60 55 56 56 56 51 45 43 41 40 39 39 39 39 38 39 41 48 49 47 43 40 36 35 37 39 39 39 39 38 37 36 35 35 37 37 37 nan nan 42 43 nan nan 42 nan 45 nan 50 51 nan 50 53 53 51 nan nan nan 50 47 nan nan nan nan 40 38 36 35 nan nan nan nan
37 41 44 46 47 47 50 54 55 54 54 54 nan nan nan nan 58 58 59 53 46 44 41 39 38 38 38 39 38 36 39 42 43 43 41 42 39 36 34 35 35 36 35 34 32 32 33 35 35 34 33 nan nan 40 40 nan nan nan 48 52 51 52 51 nan nan nan 54 50 51 50 nan 50 49 46 46 nan nan 36 35 34 29 27 nan nan nan
39 41 45 48 50 49 50 54 57 56 55 57 63 nan nan nan 60 59 57 50 45 42 39 36 36 38 39 40 38 36 37 37 38 38 37 36 35 34 33 34 34 35 36 35 34 33 35 34 33 33 35 37 39 42 nan nan 48 52 52 52 53 52 51 nan nan nan 53 51 nan nan nan nan 47 nan nan nan 36 34 32 30 28 nan nan nan nan
40 42 44 47 49 50 53 55 56 57 55 60 65 nan nan nan nan 59 54 47 42 39 35 34 35 37 39 40 38 35 36 40 38 38 36 36 35 34 34 35 34 35 37 38 37 38 39 nan 35 34 37 40 42 45 48 51 53 48 51 52 52 52 51 nan nan nan nan nan nan nan nan nan 45 nan nan 36 34 33 32 nan nan nan nan nan nan
41 42 45 48 49 51 53 54 55 55 55 62 68 nan nan nan nan 57 49 44 38 34 34 34 36 38 40 39 36 36 36 38 39 38 35 35 36 38 38 38 37 37 40 42 42 43 45 44 42 39 40 44 45 46 52 52 49 51 nan nan nan nan nan nan nan nan nan nan nan nan nan nan 42 nan nan nan nan nan nan nan nan nan nan nan nan
42 44 47 48 49 52 54 54 53 55 54 66 nan nan nan nan nan nan 44 39 33 31 32 34 36 39 40 37 36 38 37 38 38 38 35 34 37 40 44 45 44 46 48 49 48 48 49 49 48 44 43 46 47 47 51 53 nan nan nan nan nan nan nan nan nan nan nan nan 44 44 nan nan nan nan nan nan nan nan nan nan nan nan nan nan nan
43 45 47 48 51 54 54 52 51 54 57 67 nan nan nan nan nan 45 39 34 30 30 31 33 35 39 39 37 39 39 38 37 38 38 38 39 43 45 46 47 47 49 50 51 50 50 48 47 47 48 47 47 54 53 nan nan nan nan nan nan nan nan nan nan nan nan nan nan 42 40 nan nan nan nan nan nan nan nan nan nan nan nan nan nan nan
45 47 48 50 52 55 54 52 52 56 59 62 64 nan nan nan nan 38 35 31 29 30 32 34 37 39 38 36 39 40 40 39 40 40 40 43 45 46 47 47 48 48 50 51 50 48 46 45 44 42 nan nan nan nan nan nan nan nan nan nan nan nan nan nan nan nan nan nan nan nan nan nan nan nan nan nan nan nan nan nan nan nan nan nan nan
43 46 49 49 53 53 54 53 55 57 57 57 59 55 nan nan nan 37 34 32 31 32 35 38 41 39 36 40 42 42 42 40 45 46 46 47 46 46 46 46 46 47 49 49 49 51 nan nan nan nan nan nan nan nan nan nan nan nan nan nan nan nan nan nan nan nan nan nan nan nan nan nan nan nan nan nan nan nan nan nan nan nan nan nan nan
43 45 48 50 51 51 52 53 55 57 53 52 50 47 nan nan nan 36 36 34 34 35 38 39 41 40 39 41 44 42 40 43 49 47 47 47 45 46 46 46 47 47 52 nan nan nan nan nan nan 50 51 51 51 51 50 nan nan nan nan nan nan nan nan nan nan nan nan nan nan nan nan nan nan nan nan nan nan nan nan nan nan nan nan nan nan
Wind_Direction
36 29 43 51 35 34 65 67 52 35 38 42 50 63 73 63 70 84 51 40 50 30 17 9 27 12 5 30 33 35 357 23 11 5 9 348 356 355 353 357 359 3 6 6 2 7 9 6 357 357 347 333 306 289 302 298 296 298 304 312 314 313 317 321 323 326 329 333 334 334 335 337 340 343 349 352 1 10 15 20 22 24 25 25 24
15 30 38 37 38 40 37 62 56 45 46 44 38 53 57 62 5 74 50 42 37 19 18 17 19 8 5 13 7 4 9 22 16 13 354 353 343 353 359 358 0 5 9 10 9 9 10 8 8 10 6 2 344 323 297 300 313 315 313 308 301 295 299 306 311 317 318 324 328 328 332 334 339 347 350 354 360 8 18 22 27 30 32 33 34
34 15 31 30 41 57 64 63 48 46 38 36 26 34 43 13 22 30 2 11 19 18 14 23 14 16 6 352 357 351 4 3 3 360 350 338 339 349 357 1 2 4 7 13 13 18 17 14 14 13 12 5 355 347 339 321 323 343 336 312 292 283 287 286 290 300 304 307 309 309 311 321 331 337 354 356 2 9 17 23 27 29 33 39 43
17 15 43 35 34 47 51 44 51 35 37 28 14 14 21 3 358 360 348 352 10 8 12 14 16 358 5 336 354 351 353 352 349 351 358 352 352 345 353 360 2 2 7 10 13 16 22 21 18 13 12 10 1 359 350 344 330 318 329 333 314 294 274 275 272 278 291 292 290 300 299 302 297 312 335 3 14 17 22 25 28 31 31 34 40
46 44 55 39 37 45 17 56 41 360 27 20 359 1 1 2 348 350 356 5 360 354 359 356 349 338 350 334 351 337 354 347 344 338 327 7 339 340 350 355 356 1 3 7 8 9 14 19 18 12 12 5 2 1 358 348 336 327 322 315 313 308 303 278 268 268 271 273 284 288 288 295 296 294 296 308 344 24 28 29 27 31 32 31 32
70 69 68 47 44 39 17 25 355 335 327 358 350 346 351 1 346 348 1 356 351 343 344 343 328 335 343 333 348 333 351 343 326 334 345 330 333 323 312 317 337 344 353 3 1 357 1 9 10 7 6 5 2 1 359 353 348 336 330 324 318 324 324 302 282 268 258 253 266 274 280 282 285 291 291 292 301 334 7 37 37 30 26 30 34
69 67 46 35 46 37 15 2 337 336 342 326 332 334 326 341 332 3 341 345 332 343 344 328 327 335 336 332 340 324 336 324 331 340 322 318 333 310 317 320 319 329 340 338 353 353 348 352 359 2 3 3 1 359 359 359 356 353 344 338 327 318 317 318 309 306 297 273 262 269 275 277 281 285 286 290 288 292 322 10 44 42 29 28 35
60 45 35 21 26 32 23 320 318 334 325 325 325 321 326 337 345 342 329 326 334 340 337 328 329 328 329 338 330 316 329 nan 323 307 311 317 329 318 318 298 295 310 323 335 322 331 342 345 350 353 359 0 359 1 0 0 2 359 356 350 341 327 319 314 322 324 306 285 270 257 259 267 271 275 284 290 290 285 284 298 3 50 42 32 27
30 37 3 17 17 3 354 333 321 319 328 325 326 318 331 330 342 330 341 327 331 336 324 324 329 318 321 322 307 314 322 315 307 313 314 330 331 314 317 313 331 283 290 299 305 307 327 326 327 335 356 0 352 359 358 359 5 3 355 355 351 347 338 327 325 320 314 291 262 251 244 248 256 262 265 268 270 272 281 291 290 292 60 33 21
2 0 354 0 359 336 330 312 321 315 318 319 315 319 320 323 328 339 331 327 327 318 nan nan nan nan nan nan 307 312 314 309 313 314 324 332 316 314 311 314 309 307 294 284 287 299 308 316 317 321 331 345 333 340 353 341 356 358 351 349 358 1 3 350 333 329 332 327 306 276 251 239 236 241 247 249 250 252 265 277 288 294 299 9 18
350 349 341 342 337 336 327 305 304 307 304 309 310 304 320 326 334 316 318 318 323 322 319 319 nan 317 311 304 304 318 319 312 313 318 325 317 314 314 313 308 313 305 300 303 303 292 290 297 310 316 322 332 336 344 338 340 348 348 346 350 358 5 16 16 2 338 327 323 330 328 289 257 242 237 235 239 243 243 242 251 268 277 285 287 301
349 341 337 328 312 309 301 298 304 309 312 312 313 323 319 315 310 312 316 316 320 322 314 310 306 296 302 307 317 310 314 314 326 329 327 326 nan 297 nan 309 297 300 296 301 307 303 300 302 295 298 305 313 326 333 329 329 328 322 327 335 343 357 6 8 357 340 332 331 321 295 286 284 257 240 239 234 234 237 237 236 233 239 248 264 271
340 336 324 320 315 307 297 300 308 312 316 316 321 308 313 316 319 315 309 311 315 316 313 nan 302 305 300 298 302 310 316 316 323 323 330 312 307 299 nan nan nan 287 296 292 290 299 309 301 299 304 309 311 316 320 325 326 322 321 323 328 330 332 336 345 352 351 342 331 323 305 279 272 268 245 241 230 228 225 234 237 236 231 227 227 248
326 323 318 314 311 308 300 308 311 316 313 315 306 310 313 310 305 311 312 315 307 303 300 306 308 315 311 306 307 313 311 322 323 326 nan nan nan nan nan nan nan nan nan 300 295 291 289 294 301 306 307 315 319 323 319 318 321 315 309 306 311 315 318 322 325 340 347 346 338 323 300 278 274 265 251 248 239 234 239 244 242 238 233 231 229
319 317 316 313 310 306 309 312 311 308 309 307 306 315 308 305 306 303 298 300 305 302 303 302 298 292 296 nan 303 308 296 303 320 nan nan nan nan nan nan nan nan nan nan nan 289 289 289 288 286 290 299 309 312 312 310 315 314 306 298 292 287 288 293 296 300 305 310 313 313 308 299 292 284 275 268 257 247 239 234 238 238 240 244 242 238
316 311 310 311 309 311 309 310 311 311 312 313 311 308 302 302 306 302 299 302 300 299 299 304 301 293 295 295 303 302 298 298 300 306 nan nan nan nan nan nan nan nan nan nan nan 295 293 291 288 287 286 290 306 304 304 308 306 302 300 293 283 277 275 280 282 280 283 288 294 296 294 297 300 296 292 280 258 246 242 239 237 235 241 247 247
313 307 314 312 309 309 313 313 315 316 313 311 311 302 296 299 293 291 293 290 285 292 300 300 302 299 295 295 299 293 301 302 304 297 314 nan nan nan 306 nan nan nan nan nan nan nan nan nan nan nan 288 286 281 294 302 303 303 298 289 283 278 273 268 266 270 272 271 270 271 274 276 280 286 291 292 284 275 264 250 245 244 242 244 246 246
311 312 312 310 309 313 315 316 312 307 309 301 297 297 300 299 303 304 302 296 288 286 291 296 298 301 299 nan 295 296 300 297 297 305 299 nan 311 nan nan nan nan 317 317 nan nan nan nan nan 300 nan nan nan nan nan nan 291 292 291 294 290 nan nan nan 265 263 265 264 263 265 269 274 276 277 280 277 273 270 271 270 262 251 249 247 246 248
311 308 310 307 311 315 317 312 308 310 313 308 312 313 305 304 297 294 290 290 295 291 289 287 285 290 298 295 295 297 296 295 296 297 300 299 302 nan nan nan nan nan nan nan nan nan nan nan nan nan nan nan nan nan 305 nan nan nan nan nan nan nan nan nan nan nan nan nan nan nan 265 268 273 275 276 277 275 271 266 261 257 253 249 247 248
305 300 300 312 314 317 317 316 316 315 312 317 312 304 302 298 297 296 296 299 298 296 287 290 289 288 279 279 284 285 288 294 nan 292 296 300 301 299 nan nan nan nan nan nan nan nan 304 nan nan nan nan 307 nan nan nan 307 nan nan nan nan nan nan nan nan nan nan nan nan nan nan nan nan nan nan nan nan 268 267 266 265 263 258 251 244 239
308 308 315 318 318 318 319 319 315 316 321 321 321 311 309 309 307 305 306 305 304 297 292 288 287 285 277 276 280 284 291 297 nan 297 293 292 296 305 302 nan nan nan nan nan nan nan 304 nan nan nan nan nan nan nan nan 313 314 nan nan nan nan nan nan nan nan nan nan nan nan nan nan nan nan nan nan nan nan nan nan nan 258 257 256 252 246
310 314 317 319 320 323 327 326 324 322 328 317 315 317 314 312 313 313 312 305 297 295 299 296 287 285 285 283 278 276 274 nan 286 290 289 293 297 nan nan 303 301 296 nan nan 286 nan nan nan nan nan nan 301 nan nan nan nan 315 nan nan nan nan nan nan nan nan nan nan nan nan nan nan nan nan nan nan nan nan nan nan nan nan nan nan nan 251
315 316 322 322 324 328 337 333 328 322 322 325 324 323 324 320 320 307 nan nan 302 301 298 287 288 288 287 287 284 282 280 277 275 275 280 287 288 289 nan nan nan nan 292 287 286 283 279 277 281 nan 289 nan nan nan nan 307 nan nan nan nan nan nan nan nan nan nan nan nan nan nan nan nan nan nan nan nan nan nan nan nan nan nan nan nan nan
318 320 326 328 331 340 329 323 325 326 325 326 328 330 nan 326 319 318 314 307 299 292 288 291 288 287 286 289 288 nan 281 278 276 281 282 280 280 283 284 287 290 289 nan 292 291 285 nan nan nan nan nan nan nan 301 302 nan nan 318 nan 330 nan nan nan nan nan nan nan nan nan nan nan nan nan nan nan nan nan nan nan nan nan nan nan nan nan
320 326 337 339 346 343 332 327 325 326 320 322 322 315 313 316 318 320 319 313 308 302 296 290 nan 287 287 284 288 nan 280 286 284 280 277 280 282 285 287 nan nan 290 292 nan 293 294 290 286 286 292 292 292 nan nan 299 304 nan 319 325 325 nan nan nan nan nan nan nan nan nan nan nan nan nan nan nan nan nan nan nan nan nan nan nan nan nan
329 337 350 346 345 342 337 336 331 324 316 314 310 311 310 311 314 316 317 315 314 310 300 289 281 nan nan nan nan nan 277 278 281 284 nan 285 285 286 286 286 nan nan 289 288 291 nan 290 292 290 293 nan nan 287 288 nan nan nan 318 323 nan nan nan nan nan nan nan nan nan nan nan nan nan nan nan nan nan nan nan nan nan nan nan nan nan nan
341 347 353 347 349 346 342 339 335 328 320 312 305 307 312 312 315 316 315 311 309 303 307 305 nan nan nan 276 275 281 287 286 nan 289 285 282 281 280 280 279 282 283 286 291 291 295 nan 290 nan nan 298 294 290 284 287 286 286 303 314 313 310 328 nan nan nan nan nan nan nan nan nan nan nan nan nan nan nan nan nan nan nan nan nan nan nan
339 342 350 346 347 344 341 338 336 334 331 318 306 310 318 322 320 318 317 313 309 304 298 292 292 289 286 285 287 286 284 281 280 280 282 283 283 280 280 280 281 283 284 284 nan 287 nan 282 289 290 294 294 291 286 286 nan nan 298 308 300 305 308 nan nan nan nan nan nan nan nan nan nan nan nan nan nan nan nan nan nan nan nan nan nan nan
343 346 347 349 347 347 346 344 339 340 341 336 323 322 326 327 324 322 318 315 306 302 297 296 292 287 282 285 295 301 299 295 291 287 286 285 285 284 282 281 280 280 281 284 283 283 281 nan nan 280 293 294 292 nan 285 286 287 290 291 293 294 294 303 nan nan nan nan nan nan nan nan nan nan nan nan nan nan nan nan nan nan nan nan nan nan
356 353 350 350 353 356 356 354 349 350 354 351 344 338 335 331 329 326 323 316 308 302 302 299 296 292 288 290 291 294 300 302 299 293 289 287 286 287 286 286 284 283 283 283 283 282 279 279 nan 277 282 290 291 292 290 290 296 295 nan nan nan nan 295 nan nan nan nan nan nan nan nan nan nan nan nan nan nan nan nan nan nan nan nan nan nan
353 352 348 348 353 357 357 359 359 359 360 357 353 349 346 340 338 338 338 333 327 324 318 311 306 301 296 289 286 291 295 297 297 292 286 283 285 287 288 285 283 283 283 284 283 284 283 nan 282 nan 284 290 294 293 291 293 298 301 292 287 288 nan 298 295 nan nan nan nan nan nan nan nan nan nan nan nan nan nan nan nan nan nan nan nan nan
344 348 351 349 351 350 353 359 0 360 359 357 355 354 350 347 344 344 343 340 338 337 332 325 319 316 311 300 295 295 298 299 296 291 284 280 279 278 280 283 284 285 284 285 286 282 283 283 283 284 nan nan 289 286 286 291 297 304 290 289 289 294 291 290 299 nan nan nan nan nan nan nan nan nan nan nan nan nan nan nan nan nan nan nan nan
349 354 358 357 349 346 350 354 357 357 355 355 354 351 350 347 343 341 339 338 339 339 336 334 330 321 311 302 298 298 299 302 301 294 287 282 280 281 283 285 285 284 284 284 283 282 283 285 285 288 287 285 nan nan nan 287 291 291 291 287 287 nan nan 291 293 304 312 nan nan nan nan nan nan nan nan nan nan nan nan nan nan nan nan nan nan
0 3 1 358 348 346 348 350 350 351 352 352 350 347 347 345 343 339 338 335 334 334 331 329 327 321 315 309 302 300 301 302 301 297 289 284 283 284 285 288 289 287 285 283 284 282 281 282 283 280 281 282 nan nan 279 280 279 280 281 281 281 284 288 nan nan nan nan nan nan nan nan nan nan nan nan nan nan nan nan nan nan nan nan nan nan
3 2 359 356 350 347 346 346 346 347 347 348 347 346 345 343 340 337 335 333 332 331 331 329 326 323 322 317 311 306 304 303 303 300 292 287 285 285 284 283 283 284 283 281 282 283 281 280 280 279 280 279 278 275 275 278 278 276 272 272 274 277 283 290 nan nan nan nan nan nan nan nan nan nan nan nan nan nan nan nan nan nan nan nan nan
358 357 354 354 351 348 346 343 343 345 345 344 346 347 346 344 340 335 330 328 328 329 330 330 329 328 326 321 318 316 314 312 307 302 299 296 293 289 285 284 282 281 281 280 282 283 282 281 279 279 277 275 273 273 273 274 275 275 276 276 279 nan nan 288 294 nan nan nan nan nan nan nan nan nan nan nan nan nan nan nan nan nan nan nan nan
352 350 349 350 350 349 348 345 343 344 344 344 345 345 344 344 343 338 332 327 325 325 327 327 328 327 325 323 321 323 325 322 313 306 301 301 299 292 285 284 285 282 283 283 282 283 283 283 280 277 277 276 275 274 273 272 274 277 279 281 283 286 290 nan nan nan nan nan nan nan nan nan nan nan nan nan nan nan nan nan nan nan nan nan nan
352 348 347 347 348 348 346 344 343 344 344 343 343 342 342 342 342 342 337 332 328 326 325 325 326 325 324 322 322 324 324 324 317 303 296 296 295 295 289 283 282 284 285 282 281 283 283 283 281 277 277 277 276 277 276 276 276 277 279 282 285 289 nan 293 293 nan nan nan nan nan nan nan nan nan nan nan nan nan nan nan nan nan nan nan nan
355 346 342 344 344 344 343 341 343 345 344 343 341 340 339 338 340 341 339 335 330 327 325 326 327 327 325 323 322 323 327 327 322 313 302 290 288 291 292 290 288 287 288 286 285 285 285 284 282 282 279 278 278 276 276 277 278 280 281 281 nan nan 291 290 288 289 nan nan nan nan nan nan nan nan nan nan nan nan nan nan nan nan nan nan nan
353 342 339 344 343 341 340 340 342 343 342 340 339 338 337 336 337 337 336 334 331 327 324 324 326 327 325 322 321 323 327 326 325 319 310 299 290 289 291 290 287 286 284 283 285 286 286 284 283 280 279 278 277 278 277 277 279 281 284 286 288 nan nan nan nan nan nan nan nan nan nan nan nan nan nan nan nan nan nan nan nan nan nan nan nan
346 340 333 336 335 336 338 337 338 340 341 340 338 336 334 334 334 334 334 333 329 325 322 321 323 323 318 316 317 321 322 321 320 320 318 311 301 297 293 290 285 282 280 282 285 289 289 289 286 284 283 283 283 282 282 284 285 286 285 285 nan nan 286 nan 293 296 296 nan nan nan nan nan nan nan nan nan nan nan nan nan nan nan nan nan nan
342 335 334 333 327 329 335 335 333 334 335 336 336 336 333 331 331 330 330 330 327 324 322 318 318 318 318 318 318 326 329 326 326 327 323 317 311 303 298 295 292 288 286 287 290 293 293 294 293 290 289 nan nan 286 286 nan nan 283 nan 284 nan 287 288 nan 295 299 299 298 nan nan nan 299 298 nan nan nan nan 294 292 292 291 nan nan nan nan
339 331 330 330 322 329 335 335 333 332 331 331 nan nan nan nan 328 327 327 326 324 322 319 314 314 317 315 316 315 319 321 322 321 323 319 316 315 312 306 302 297 293 289 291 293 294 293 292 291 293 294 nan nan 289 286 nan nan nan 283 284 287 290 293 nan nan nan 301 302 299 296 nan 300 298 297 297 nan nan 292 292 292 295 297 nan nan nan
329 326 328 326 328 332 333 334 334 332 331 330 330 nan nan nan 327 323 322 321 320 319 315 312 311 313 315 314 314 311 312 313 311 309 308 312 316 312 305 300 299 301 299 294 291 291 292 292 295 297 295 293 289 287 nan nan 281 282 286 290 293 294 295 nan nan nan 298 297 nan nan nan nan 298 nan nan nan 291 289 290 292 294 nan nan nan nan
320 324 323 326 331 330 330 331 331 330 329 327 328 nan nan nan nan 321 319 319 318 316 312 310 309 311 311 309 309 311 304 293 299 308 315 315 316 311 302 300 301 303 304 304 306 305 299 nan 296 294 292 288 287 288 288 285 283 289 292 294 294 295 296 nan nan nan nan nan nan nan nan nan 298 nan nan 292 288 286 287 nan nan nan nan nan nan
321 321 323 326 328 327 324 323 323 324 326 322 326 nan nan nan nan 322 318 318 317 313 310 309 308 308 307 307 311 309 308 309 311 314 314 317 312 306 302 299 300 304 306 309 311 314 310 302 298 294 292 291 292 292 290 289 295 295 nan nan nan nan nan nan nan nan nan nan nan nan nan nan 297 nan nan nan nan nan nan nan nan nan nan nan nan
321 322 320 322 320 317 317 317 319 321 321 321 nan nan nan nan nan nan 319 317 313 308 305 305 307 309 310 313 314 312 312 312 314 315 315 313 310 305 301 301 302 303 302 302 304 301 298 297 298 299 296 294 296 297 297 298 nan nan nan nan nan nan nan nan nan nan nan nan 309 306 nan nan nan nan nan nan nan nan nan nan nan nan nan nan nan
312 315 316 316 315 314 315 318 320 319 314 320 nan nan nan nan nan 315 319 318 312 307 307 308 307 307 308 310 308 314 314 313 314 320 314 307 304 303 303 303 302 301 301 303 305 302 299 297 295 297 298 296 293 293 nan nan nan nan nan nan nan nan nan nan nan nan nan nan 305 300 nan nan nan nan nan nan nan nan nan nan nan nan nan nan nan
309 312 312 312 309 311 316 320 319 317 314 322 320 nan nan nan nan 315 319 318 314 312 310 309 307 306 309 310 312 313 311 307 309 312 310 307 301 301 301 300 299 299 299 298 302 306 306 308 309 301 nan nan nan nan nan nan nan nan nan nan nan nan nan nan nan nan nan nan nan nan nan nan nan nan nan nan nan nan nan nan nan nan nan nan nan
306 306 307 308 308 312 317 320 319 319 318 322 324 323 nan nan nan 320 320 319 317 313 311 304 300 304 312 321 315 311 308 305 306 312 310 303 299 299 298 297 297 296 296 295 292 293 nan nan nan nan nan nan nan nan nan nan nan nan nan nan nan nan nan nan nan nan nan nan nan nan nan nan nan nan nan nan nan nan nan nan nan nan nan nan nan
298 298 302 303 303 308 317 316 317 320 321 321 325 323 nan nan nan 320 318 318 315 312 308 306 305 310 316 316 313 309 306 303 308 308 307 304 299 298 296 295 294 294 289 nan nan nan nan nan nan 290 292 296 297 299 302 nan nan nan nan nan nan nan nan nan nan nan nan nan nan nan nan nan nan nan nan nan nan nan nan nan nan nan nan nan nan